GEFSGL_500_meanwind_108.txt.gz
Wind_Speed
12 12 12 12 12 12 13 13 14 15 16 17 17 18 19 20 21 21 21 21 22 22 23 23 23 24 24 24 24 24 25 25 25 25 26 25 25 25 25 25 26 26 27
12 12 13 13 14 14 15 16 17 18 19 19 20 21 21 22 23 24 23 24 24 24 25 25 25 25 26 26 26 26 26 27 27 27 27 27 27 27 27 27 27 27 27
13 13 14 15 16 17 18 18 19 20 21 21 22 23 23 25 25 25 25 25 26 26 27 27 27 27 27 28 28 28 28 28 28 28 28 28 28 28 28 29 29 29 29
14 14 15 16 18 19 20 21 22 23 23 24 24 25 26 26 26 26 27 27 28 28 29 29 29 29 29 30 30 30 30 30 29 29 29 30 30 30 30 30 30 30 30
15 16 17 19 20 21 22 23 24 25 25 26 27 27 27 27 28 28 28 29 29 30 30 31 31 31 31 31 31 31 31 31 31 31 31 31 32 32 32 31 31 31 32
17 18 19 21 22 23 24 25 25 26 27 27 28 28 29 29 30 30 30 31 31 32 32 32 33 33 33 33 33 33 33 33 33 33 33 33 33 34 34 33 33 33 33
21 22 22 23 24 26 27 27 28 28 29 29 30 31 31 32 32 32 32 32 32 32 33 34 34 34 34 34 34 34 34 35 35 35 34 34 35 35 36 35 35 35 35
24 25 25 26 27 28 30 30 30 31 31 32 32 32 33 34 35 35 34 34 34 35 35 35 35 35 36 36 36 36 36 37 37 37 36 36 37 38 38 38 37 37 37
27 27 28 29 30 31 32 33 33 33 33 35 35 35 35 35 35 35 36 36 36 37 37 38 38 37 37 38 38 38 39 39 40 40 39 39 39 39 40 40 40 40 39
29 30 32 33 33 34 34 34 35 35 35 36 36 36 36 36 36 37 38 39 39 39 39 40 39 39 39 40 40 41 41 42 43 42 42 41 41 41 41 41 42 42 41
32 33 35 36 36 36 36 37 37 38 37 37 37 36 37 37 38 39 40 41 42 42 41 41 41 41 41 42 43 44 44 45 45 45 44 44 44 44 44 43 43 43 42
34 35 36 37 37 37 37 37 38 39 39 37 37 38 38 39 40 41 42 43 44 44 44 44 44 45 45 46 46 47 47 48 48 48 47 47 46 45 45 44 44 44 43
36 37 37 38 38 37 37 37 38 37 37 38 39 40 41 42 43 43 43 44 44 45 46 47 48 49 50 50 50 50 50 51 51 50 50 49 48 47 47 46 45 44 43
38 39 38 38 39 39 39 39 38 37 38 39 39 40 41 42 44 44 45 47 48 49 50 51 51 52 53 53 54 53 53 53 53 53 51 50 49 49 48 47 46 45 43
39 38 38 38 38 38 39 38 38 38 38 39 40 42 43 44 45 47 48 50 52 53 54 55 56 56 56 56 56 56 55 54 54 54 53 51 50 50 48 47 46 45 44
38 38 38 38 39 39 38 38 38 39 40 41 42 44 46 47 48 50 52 53 54 56 57 57 58 58 58 58 58 57 56 55 55 54 53 52 51 49 48 46 45 44 43
38 38 39 39 39 39 38 39 40 41 42 43 44 46 48 50 51 53 54 55 56 58 59 59 59 59 59 59 58 57 56 55 54 53 52 50 49 48 47 45 44 43 42
38 39 39 40 40 40 40 41 42 43 44 45 47 49 51 53 54 55 56 57 58 59 60 60 59 59 58 57 55 53 52 51 50 50 48 47 46 46 45 44 42 41 40
38 38 38 39 40 41 41 42 43 45 46 48 50 51 53 55 56 57 58 59 60 59 59 58 58 56 55 53 51 50 49 47 46 46 45 45 44 43 41 40 39 37 37
39 39 40 41 42 43 44 45 47 48 50 52 54 55 56 57 57 58 58 58 58 57 56 55 54 52 50 49 47 46 45 44 42 42 42 41 41 39 38 37 36 35 35
40 41 41 42 43 45 47 48 49 51 52 53 55 56 57 57 57 57 56 55 54 54 53 51 49 48 46 44 44 43 41 40 39 38 38 37 36 35 34 34 33 33 33
41 42 43 45 47 48 50 51 51 52 53 54 55 55 55 54 54 53 52 51 51 49 49 47 45 44 43 43 42 41 39 37 35 35 35 34 32 32 33 33 32 31 31
43 45 46 48 49 50 51 52 52 53 53 53 53 53 52 51 49 49 48 47 46 45 44 43 41 40 39 38 37 36 34 33 32 32 32 31 30 30 31 31 30 30 30
46 47 48 49 50 50 51 51 51 51 51 51 50 49 48 46 46 44 43 42 42 41 40 38 36 35 34 33 32 32 30 30 30 29 28 28 27 27 28 28 28 28 29
48 48 48 48 48 48 48 48 47 47 46 45 45 44 43 42 41 40 39 38 37 37 35 34 32 31 29 29 28 28 27 27 26 26 25 25 24 24 24 25 25 25 26
46 46 46 46 46 45 45 44 43 42 42 41 40 39 38 38 37 36 35 34 32 31 30 28 27 27 26 26 25 24 23 22 22 21 21 20 20 20 20 20 21 21 21

GEFSGL_500_meanwind_114.txt.gz
Wind_Speed
12 14 14 15 15 15 15 15 15 15 14 14 14 14 14 15 15 15 16 16 16 16 17 17 17 18 18 18 18 18 18 18 18 19 19 20 21 21 21 21 22 22 22
11 12 14 15 16 16 15 15 16 16 16 16 16 16 17 17 17 18 19 19 19 19 19 20 20 21 21 21 21 21 21 21 21 22 22 22 23 23 23 23 24 24 24
11 12 14 15 15 16 17 17 17 17 17 18 18 19 19 20 20 21 21 22 22 22 22 23 23 23 23 23 24 24 24 24 24 25 25 25 25 25 25 25 26 26 26
13 13 14 14 15 16 18 18 19 19 19 19 20 21 22 23 23 24 24 25 25 25 25 25 26 25 25 26 26 26 26 27 27 27 28 28 28 28 28 28 28 28 29
13 14 14 15 16 16 18 19 20 21 22 22 23 24 25 26 26 26 27 27 27 28 28 28 28 28 28 28 28 28 29 29 30 30 30 30 31 31 30 30 30 30 31
14 14 15 16 17 18 19 21 22 23 24 25 26 27 28 28 28 30 30 31 31 31 31 31 31 31 32 31 31 31 31 32 32 33 33 33 33 33 33 33 33 33 32
16 17 17 19 20 20 22 24 24 25 26 26 27 28 29 29 30 31 33 34 34 33 33 34 33 33 34 33 34 34 34 35 36 36 35 35 35 36 36 36 36 36 36
19 19 20 21 23 24 25 26 27 27 28 29 29 29 31 31 32 33 34 35 36 35 35 36 36 35 35 36 36 36 37 37 37 38 37 37 38 39 40 40 40 40 39
21 21 22 23 25 26 27 28 29 29 29 29 30 30 31 32 33 34 35 36 37 37 37 37 37 37 37 37 38 38 38 38 40 40 40 40 41 41 42 43 43 43 42
22 24 25 26 28 29 29 29 28 28 30 31 32 33 33 33 34 35 36 36 37 37 38 38 38 39 39 40 40 40 41 41 42 42 42 43 44 45 46 46 47 47 46
24 26 28 29 29 30 30 30 29 30 31 33 34 34 34 35 36 37 37 36 37 38 39 39 40 40 41 41 42 43 44 44 43 44 45 46 47 48 48 49 49 49 49
27 28 29 30 30 30 32 32 33 32 33 33 35 36 37 37 36 37 38 38 39 39 40 40 41 42 42 43 44 44 45 45 46 47 48 49 49 50 51 52 52 52 52
29 30 31 32 33 33 34 34 34 34 33 34 34 36 38 38 39 39 39 39 40 41 41 42 43 44 44 45 45 46 47 48 49 50 50 51 52 52 53 54 54 54 54
32 32 32 33 33 34 35 35 36 36 36 37 38 39 40 41 42 42 42 42 42 43 43 44 45 46 47 47 48 49 50 51 52 53 53 54 54 55 55 56 56 57 57
33 33 34 35 35 35 35 36 37 38 38 39 40 41 41 43 44 44 43 44 44 44 45 45 46 47 48 49 51 52 54 54 55 56 57 57 57 57 57 58 58 57 56
33 34 34 35 36 37 38 38 38 39 40 40 40 41 41 42 43 44 44 45 45 46 47 48 49 50 52 53 54 55 56 57 58 59 59 59 59 58 58 57 57 57 56
34 35 36 36 37 38 38 39 40 40 40 41 41 41 42 43 44 45 46 48 49 50 51 52 53 54 55 56 57 58 58 59 59 59 59 58 58 57 57 56 55 55 54
35 36 37 37 38 39 39 40 41 41 41 41 42 43 44 45 46 47 49 50 51 53 54 54 55 56 56 57 58 58 58 58 57 57 57 56 55 55 54 53 52 51 50
35 36 37 37 38 39 40 41 42 42 42 43 44 46 46 47 49 50 51 52 53 54 55 55 55 56 56 56 56 55 54 53 53 53 53 52 51 50 50 48 47 47 47
36 37 37 37 38 39 40 41 42 43 44 45 47 48 49 50 51 52 53 54 55 55 54 54 53 53 53 52 51 50 50 49 49 48 47 45 45 45 44 43 43 42 42
36 37 38 39 40 41 42 43 44 45 46 46 47 48 49 50 51 52 53 53 53 52 51 51 50 49 49 48 47 47 45 44 43 42 41 41 41 40 39 38 38 38 38
38 40 41 42 43 44 44 45 45 46 47 48 48 49 50 51 51 51 51 50 49 48 47 47 46 44 44 43 43 41 40 39 38 37 37 35 34 34 33 34 34 35 35
41 42 43 44 45 45 46 46 47 48 48 49 49 49 49 49 49 48 46 45 43 43 42 41 40 40 40 39 38 36 36 35 34 33 32 31 30 30 29 29 30 30 30
43 44 44 45 46 46 46 47 47 47 47 46 46 46 45 44 43 42 40 39 38 38 38 38 37 36 35 34 33 32 31 31 31 30 30 29 28 28 27 26 26 26 25
44 45 45 45 45 45 45 45 45 44 43 43 42 41 40 39 38 37 36 35 34 34 34 34 33 31 30 29 28 28 27 28 28 28 28 27 26 24 23 22 21 21 22
44 44 44 44 44 43 42 42 41 40 40 39 38 37 35 35 34 33 32 32 31 31 30 29 28 26 25 25 25 24 25 25 25 24 23 22 21 20 18 17 17 16 16

GEFSGL_500_meanwind_120.txt.gz
Wind_Speed
14 14 17 18 19 20 20 19 19 19 19 20 20 19 19 19 19 19 19 19 20 20 20 20 20 21 21 22 21 21 22 22 22 22 23 23 24 24 23 24 24 24 24
13 13 15 18 19 20 20 20 20 20 20 20 21 21 21 21 21 21 22 22 23 23 23 23 24 24 24 24 24 24 24 24 25 25 25 26 27 27 27 27 27 27 27
14 14 15 17 19 19 20 21 21 21 21 21 22 21 22 22 22 23 24 25 26 26 26 26 27 27 27 27 27 27 27 28 28 28 28 28 29 29 30 30 30 30 30
14 15 15 16 17 18 19 21 22 22 22 23 23 23 23 24 24 25 26 27 28 28 29 29 29 30 30 30 30 30 30 31 31 32 32 31 31 32 33 33 33 33 33
13 14 15 16 16 17 18 20 22 23 23 24 24 25 26 26 27 28 29 30 30 30 31 32 32 33 32 33 33 33 34 34 34 35 35 35 35 36 36 36 36 36 37
14 15 16 17 18 19 20 21 22 23 24 26 27 27 28 29 30 30 30 31 32 33 33 34 35 36 36 37 37 36 36 36 37 37 37 38 38 39 39 39 39 39 39
15 16 17 18 18 20 21 22 23 25 26 27 28 29 31 32 33 33 34 35 35 35 35 36 37 38 39 38 38 38 37 38 39 39 40 40 41 42 42 42 42 42 42
18 18 18 19 20 21 22 23 25 27 28 30 31 32 32 34 35 37 38 38 37 37 38 39 39 40 41 41 40 40 41 41 42 42 42 43 44 45 45 45 45 44 44
21 21 21 21 22 23 25 26 27 29 30 31 32 33 34 34 35 37 38 38 39 39 39 40 41 41 42 42 43 42 43 43 44 44 44 45 46 47 48 48 47 47 46
22 22 23 24 25 26 27 29 30 30 32 32 31 33 34 35 37 38 39 40 41 41 42 42 43 43 44 45 45 45 45 46 46 46 46 47 48 48 49 50 50 50 49
23 24 24 26 27 28 29 30 30 31 32 33 34 35 36 37 38 39 40 41 41 42 43 44 44 45 46 46 46 46 47 48 48 49 48 49 49 50 51 51 52 52 52
24 26 26 27 28 29 30 31 32 32 34 36 36 38 39 39 40 41 42 42 42 44 44 45 46 46 46 46 47 47 48 50 51 51 51 51 51 51 52 54 55 55 55
26 28 29 30 30 31 32 33 34 35 36 37 37 39 40 41 40 41 41 42 43 44 45 45 46 47 48 49 49 50 51 52 53 52 51 52 53 53 55 56 57 57 58
28 28 29 30 31 32 32 33 34 35 36 37 38 39 40 41 41 41 42 44 45 46 47 48 49 50 51 51 52 53 53 53 54 54 54 54 56 56 58 59 59 59 59
29 29 29 30 31 32 32 33 35 36 37 37 38 39 40 41 41 42 44 46 47 48 49 50 51 51 52 53 54 54 55 55 56 57 58 58 58 59 59 60 60 61 62
30 30 31 32 32 33 34 35 36 37 38 39 40 41 42 42 43 44 45 46 48 49 50 51 52 53 54 55 56 56 56 57 58 59 59 60 60 60 59 60 60 61 61
31 32 32 33 34 35 36 37 38 39 40 41 42 42 43 44 45 47 47 48 49 51 51 52 52 53 54 55 56 56 57 58 59 59 59 60 59 59 59 59 60 60 60
32 32 33 34 35 36 37 38 39 39 41 42 43 44 45 46 47 48 49 50 51 51 52 53 54 54 55 55 56 57 58 58 59 59 58 58 58 57 58 58 58 57 57
32 33 35 36 37 38 38 39 40 42 43 44 45 46 47 48 49 50 50 51 52 53 53 54 55 55 56 56 56 56 56 56 55 54 54 54 54 54 53 53 53 53 53
35 36 37 38 38 40 41 42 43 45 46 47 48 48 49 50 51 51 52 52 53 53 53 53 54 55 54 54 53 52 50 49 49 49 49 49 48 47 47 47 47 47 46
36 37 38 40 41 42 44 45 46 48 48 49 50 50 51 51 52 52 52 53 53 53 53 53 52 51 49 48 47 46 45 45 45 45 44 43 43 42 43 43 43 42 42
38 39 41 42 44 45 47 48 49 50 51 51 52 53 53 53 53 52 52 52 52 51 50 49 47 45 44 43 43 42 42 42 41 41 40 39 39 39 39 39 39 37 36
41 42 44 45 46 48 49 50 51 51 51 52 52 52 51 51 51 50 49 48 47 46 45 43 42 41 41 40 40 40 39 38 37 37 36 36 36 36 36 35 33 32 32
43 44 46 47 49 50 50 50 50 50 50 50 49 49 48 48 47 46 45 44 43 42 40 39 38 38 38 37 37 36 35 34 33 33 33 32 32 31 30 29 30 30 29
45 47 48 48 49 49 49 49 48 48 48 47 46 46 45 44 43 43 42 40 39 37 36 36 35 34 34 34 33 32 31 30 30 29 28 28 27 27 27 27 27 27 26
47 48 48 48 47 47 46 45 45 44 44 43 42 41 40 39 38 38 36 35 33 32 32 31 30 30 29 28 28 27 27 26 26 25 25 24 24 24 24 23 22 21 20

GEFSGL_500_meanwind_126.txt.gz
Wind_Speed
14 17 18 18 18 18 18 19 19 20 19 19 19 19 19 18 18 18 18 19 19 19 19 20 20 21 21 21 22 23 24 24 24 24 24 25 25 25 25 26 26 26 26
12 15 16 16 17 17 17 18 19 19 20 20 20 20 20 20 21 21 21 22 22 22 23 23 23 24 25 25 25 26 27 27 28 28 28 28 28 29 29 29 29 30 29
12 14 15 16 16 17 18 18 20 20 21 21 22 22 22 22 22 23 24 25 25 25 26 26 26 27 27 27 28 29 29 30 31 31 31 31 32 32 32 32 33 33 33
11 13 14 16 17 18 19 19 20 20 21 22 23 23 23 23 24 25 26 26 27 28 29 29 29 30 31 31 31 31 32 32 33 34 34 34 34 35 35 35 35 35 35
10 12 14 16 17 18 19 20 20 21 21 22 23 24 25 25 26 27 28 29 30 31 31 32 32 32 33 34 34 34 35 35 36 36 37 37 38 38 38 38 38 38 39
11 12 14 15 17 18 19 20 20 21 22 22 24 25 26 27 27 29 30 31 33 33 34 35 36 35 36 36 37 38 39 39 39 39 40 40 40 41 41 42 42 42 42
12 13 14 15 16 18 19 20 21 22 23 24 25 27 28 29 31 32 33 34 35 35 36 37 38 39 40 40 41 42 42 43 43 42 42 42 43 43 43 43 43 43 43
13 14 15 16 17 18 20 21 22 23 25 27 28 30 31 32 34 35 36 36 37 38 39 40 40 41 41 43 44 44 44 44 45 44 44 44 45 45 45 45 44 45 45
16 16 17 18 19 21 21 23 24 25 27 28 29 30 32 32 33 34 36 36 37 39 39 41 42 42 42 43 45 45 45 45 47 47 47 46 47 46 46 47 48 48 48
17 18 19 20 22 24 24 25 26 28 29 30 31 32 33 34 35 37 38 39 39 39 40 41 42 42 43 45 45 45 45 46 47 47 47 48 49 49 49 49 49 50 50
20 19 20 21 22 23 25 26 27 29 30 32 33 34 35 36 36 38 39 40 41 42 42 42 43 43 44 45 46 46 46 47 48 49 49 50 51 51 51 52 53 53 53
22 22 22 23 24 25 26 27 28 29 31 32 34 35 37 38 39 39 40 42 43 44 44 44 44 45 45 46 47 48 48 49 51 52 53 53 53 53 53 53 54 55 55
24 24 24 25 26 27 27 29 30 30 32 33 34 36 37 38 40 41 42 43 44 45 45 45 46 47 47 47 48 49 50 51 52 52 53 54 55 55 56 56 57 57 57
24 25 26 27 27 28 29 30 31 32 33 34 36 37 38 39 40 41 42 43 44 45 46 47 47 47 48 49 50 51 52 53 53 54 55 55 55 56 57 58 58 58 58
28 28 29 29 30 30 31 32 33 33 34 35 36 37 39 40 41 42 43 44 45 46 47 48 48 49 49 50 50 51 52 52 53 53 54 55 56 57 57 58 58 58 58
29 30 30 31 31 31 32 32 33 34 34 36 37 39 40 41 43 44 45 46 47 47 48 49 50 50 50 51 52 53 53 53 54 54 55 55 56 57 57 58 58 57 56
30 29 30 30 31 32 32 33 34 35 36 37 39 40 41 43 44 46 47 48 48 49 49 50 51 52 52 53 53 54 54 55 55 55 55 55 55 55 55 55 55 54 54
28 29 29 30 31 32 33 34 35 36 38 39 41 42 43 45 47 48 48 49 50 51 51 52 53 54 54 55 55 55 55 55 55 54 53 53 52 52 52 51 51 50 50
27 28 29 30 32 34 35 36 37 39 41 43 44 46 47 48 49 50 50 51 52 52 53 54 54 55 55 55 55 55 54 53 52 51 50 49 48 48 47 46 45 45 44
27 29 30 32 33 34 36 38 40 42 44 45 47 49 50 51 51 52 52 52 53 54 54 54 54 54 53 52 51 50 50 49 48 46 45 44 43 42 41 40 39 39 39
29 30 32 33 35 37 39 41 43 45 47 48 50 51 52 52 52 52 53 53 53 52 52 51 51 50 49 48 47 46 45 44 43 42 41 40 39 38 38 37 38 38 38
31 32 34 36 38 40 42 44 45 47 49 50 51 52 52 51 51 51 51 50 48 47 47 46 45 45 44 44 43 42 41 40 39 38 37 37 37 36 35 35 34 34 34
33 35 37 39 41 43 44 45 47 48 49 50 50 50 49 48 48 48 46 45 44 43 42 41 41 40 40 39 37 36 36 35 34 34 34 33 32 31 31 30 30 30 29
36 38 40 41 42 44 45 46 47 47 48 47 47 46 45 44 44 42 41 41 40 39 39 38 37 36 35 34 33 32 32 31 30 30 29 28 27 27 27 27 27 27 27
39 40 41 42 43 44 45 45 46 46 45 45 44 43 42 41 39 38 37 37 36 35 35 34 33 32 30 29 28 28 27 27 26 25 24 23 23 24 24 23 23 22 22
40 41 42 43 43 43 44 44 44 43 43 42 41 40 39 37 36 35 33 32 31 31 30 29 28 27 26 25 25 24 23 22 21 20 20 20 20 20 19 19 18 18 17

GEFSGL_500_meanwind_132.txt.gz
Wind_Speed
8 10 11 13 15 16 16 18 19 19 18 18 19 18 18 18 18 18 18 18 17 17 18 18 18 19 20 21 21 22 22 23 24 23 23 24 25 25 25 25 25 25 25
7 9 10 11 13 13 15 16 18 19 19 19 19 18 18 17 18 19 19 19 19 20 20 21 22 22 23 24 24 24 25 26 26 27 27 27 27 28 28 28 28 28 28
5 7 8 10 11 12 13 14 15 16 17 17 17 17 17 18 19 20 20 21 22 22 23 24 25 26 26 27 27 27 28 28 29 30 30 31 30 31 31 32 32 32 32
6 7 7 9 11 12 13 14 15 16 16 17 17 18 19 20 21 21 22 23 23 24 25 26 27 28 29 29 29 30 31 31 32 32 33 34 34 35 35 35 35 36 36
6 7 7 9 10 11 12 14 15 17 18 19 20 20 21 21 22 23 24 25 26 27 27 28 29 30 30 32 32 33 34 35 36 36 37 37 37 38 37 37 37 37 37
7 8 9 9 11 12 13 14 16 17 18 19 20 21 21 23 24 25 26 27 28 29 29 30 31 31 32 33 34 36 37 38 39 40 39 40 40 41 41 41 40 40 40
8 8 9 10 11 13 14 15 16 17 18 19 21 22 23 24 26 27 28 29 29 30 31 32 33 34 35 36 37 38 38 39 40 41 41 42 43 43 43 42 43 43 43
11 11 11 12 13 13 15 17 18 20 21 21 23 24 25 25 25 26 28 29 30 31 32 33 35 36 37 38 38 38 39 40 41 42 43 44 44 44 45 45 46 46 46
13 13 13 14 15 16 16 16 17 18 20 21 22 23 24 25 26 28 29 30 31 32 33 35 36 37 38 39 40 40 41 41 43 44 44 44 45 46 47 48 49 49 48
16 16 15 15 16 17 18 18 19 19 20 21 23 24 25 26 27 29 31 31 33 34 35 37 38 39 41 42 42 42 43 43 44 45 45 46 47 47 48 50 50 51 51
18 19 19 19 18 19 20 20 21 21 22 24 25 26 26 28 29 31 32 33 34 36 36 38 39 39 40 41 42 43 44 45 46 46 47 47 48 50 51 52 53 54 53
20 21 21 21 21 21 22 23 23 24 25 26 27 27 28 29 31 32 33 34 36 37 38 38 39 40 41 41 43 44 45 46 47 48 49 49 51 52 52 52 53 54 55
22 23 23 24 24 24 25 25 24 24 25 26 28 30 30 31 32 33 35 36 37 38 39 40 41 42 43 44 45 47 48 49 50 50 51 52 52 53 53 52 52 53 54
25 25 25 26 26 25 25 26 26 27 28 29 30 31 32 33 34 35 36 38 38 39 41 42 43 44 46 47 48 50 51 51 52 52 53 53 54 54 54 54 54 55 55
27 28 28 28 29 28 29 30 30 30 30 31 31 32 34 35 36 37 38 39 40 42 43 44 46 47 49 50 51 53 53 54 54 54 55 55 56 56 56 56 56 56 56
29 29 29 30 30 30 30 31 31 32 32 33 34 35 35 36 36 38 39 40 42 44 46 47 49 51 52 53 53 54 55 55 55 56 57 57 57 56 56 56 55 55 53
29 29 29 30 30 30 31 32 32 33 33 34 34 35 36 36 38 40 41 43 46 48 49 51 52 53 54 54 54 55 55 55 56 56 56 55 54 54 53 52 51 50 49
30 30 31 31 31 31 31 32 32 32 33 33 34 35 37 39 41 43 45 47 49 51 52 52 53 54 54 54 54 54 54 54 54 53 53 52 51 51 50 49 48 47 47
30 30 29 28 28 29 30 31 32 33 34 35 37 39 40 42 44 46 47 49 51 52 52 53 53 53 52 52 52 52 52 51 50 49 49 49 48 47 46 45 44 43 42
27 27 27 27 27 28 30 31 33 35 37 38 40 42 44 45 47 48 49 50 51 51 52 52 52 52 52 51 50 50 49 48 47 46 46 45 44 43 43 42 42 41 40
24 24 25 27 28 29 31 33 35 37 40 42 43 45 46 47 48 49 50 50 51 51 51 51 50 50 49 48 47 46 46 45 44 43 42 41 41 41 40 40 39 38 37
23 24 26 27 30 32 34 36 38 40 41 43 44 45 46 47 48 49 50 50 50 49 49 48 47 46 45 44 43 42 42 41 40 39 39 38 37 37 36 36 36 35 33
24 26 28 30 32 34 36 37 39 41 42 43 45 46 47 48 48 49 48 47 46 46 45 43 42 41 41 40 40 39 38 37 36 35 34 33 33 33 32 32 31 30 28
26 28 30 32 34 36 37 39 40 42 43 45 46 46 46 47 47 46 45 44 43 42 41 40 39 38 37 36 35 34 33 33 32 31 31 30 30 29 28 27 26 25 24
29 31 33 34 36 37 39 40 42 43 44 44 45 44 44 44 43 42 41 40 39 38 37 36 35 34 33 31 31 30 30 30 29 29 29 28 27 26 25 23 22 21 21
32 33 35 36 38 39 40 41 42 42 42 42 42 42 41 41 40 39 38 37 35 34 33 32 30 30 29 29 28 28 27 27 27 26 26 25 23 22 20 19 19 18 18

GEFSGL_500_meanwind_138.txt.gz
Wind_Speed
6 7 11 14 16 16 16 17 19 20 20 19 20 21 21 20 19 19 19 20 20 19 19 19 18 18 17 18 18 18 19 19 19 20 20 20 20 21 22 22 23 23 23
5 5 9 13 14 15 16 16 17 20 20 20 21 21 21 21 21 20 20 20 20 20 20 19 20 20 20 20 21 21 22 22 22 22 23 23 24 24 25 25 25 26 27
5 6 8 10 13 15 15 16 16 17 19 21 21 22 22 22 21 21 21 20 21 21 21 21 22 22 23 23 24 24 24 25 25 26 26 27 27 28 28 28 29 29 30
5 6 8 9 11 13 14 15 16 17 19 20 21 22 22 23 22 22 22 22 22 22 23 24 24 24 25 25 26 27 27 27 28 29 29 29 30 31 31 31 31 32 32
6 5 8 10 11 12 13 13 14 15 16 18 19 20 21 21 21 21 22 23 23 23 24 25 26 26 27 27 28 29 30 30 31 31 32 32 33 33 33 34 34 34 35
6 7 7 9 10 10 11 13 15 16 16 17 18 19 20 21 22 23 24 25 25 25 26 27 27 29 30 30 31 31 32 32 33 34 34 34 34 35 36 37 37 37 37
8 7 7 8 11 12 12 12 14 16 17 18 19 20 20 22 23 24 24 24 25 26 27 28 30 31 32 32 32 33 33 34 35 35 36 36 37 39 40 40 40 41 41
10 10 9 8 10 12 13 14 14 15 16 18 19 20 21 22 23 24 26 26 26 27 28 29 30 30 31 31 32 33 34 35 36 37 38 39 40 41 42 42 43 44 44
13 12 12 12 11 12 13 15 16 16 17 18 19 20 21 22 23 25 26 26 27 27 28 29 30 31 32 33 34 35 35 36 37 38 39 40 41 42 44 45 46 46 46
14 14 14 14 14 15 15 15 16 17 17 18 19 20 20 22 23 24 25 27 28 28 28 29 30 32 33 34 35 37 38 39 40 41 41 42 43 45 46 47 47 48 49
16 16 16 16 16 17 17 17 17 18 19 20 20 21 22 24 25 25 26 27 28 29 30 31 32 33 35 36 37 38 38 40 42 43 44 44 45 46 48 49 50 51 52
17 17 17 17 18 18 18 19 19 20 20 21 23 23 23 24 26 27 28 29 31 32 33 34 35 36 37 38 39 39 40 41 42 43 45 46 48 49 50 51 53 54 55
19 19 18 18 19 19 19 20 21 21 21 22 23 24 25 26 27 28 30 31 32 33 34 35 36 37 38 39 40 41 42 43 45 46 48 49 50 52 53 54 55 56 57
20 20 19 20 21 22 22 23 23 23 23 24 25 26 27 28 29 30 31 32 34 35 35 36 37 38 39 41 42 44 45 47 48 50 51 52 54 55 56 56 57 57 57
22 22 22 22 23 24 23 23 23 24 25 26 26 28 29 30 31 33 33 34 35 36 37 38 39 40 42 44 45 47 48 50 52 53 54 54 55 56 56 57 57 57 58
23 23 24 24 23 24 24 25 26 27 27 27 28 29 30 31 32 33 33 34 35 36 38 40 41 43 45 46 47 49 51 52 53 54 55 55 55 55 55 56 56 56 57
23 23 23 24 25 26 26 27 28 29 30 30 29 30 31 32 32 33 33 35 37 39 41 43 45 46 47 48 50 51 52 53 54 54 54 54 55 55 55 55 55 55 55
23 24 24 25 26 27 27 28 29 30 30 30 30 30 31 32 33 35 37 39 40 42 44 45 47 48 50 51 52 53 53 53 53 53 54 54 54 54 53 53 53 52 51
24 24 24 25 25 26 26 27 28 28 28 29 29 31 33 34 35 37 39 41 42 44 46 47 49 50 51 51 52 52 52 52 52 52 52 51 51 50 49 49 47 46 45
22 23 24 24 24 24 24 24 25 26 27 28 30 32 34 35 37 39 41 43 44 46 47 48 49 50 50 50 50 50 49 49 49 48 47 47 46 45 43 42 41 40 39
20 20 20 20 21 21 22 23 24 26 28 30 32 34 35 37 39 41 43 45 46 47 48 48 49 49 49 48 48 47 47 46 45 43 42 41 40 39 37 37 36 36 36
17 18 19 19 21 22 24 26 27 29 30 32 34 36 38 40 42 43 44 45 46 47 47 47 47 47 46 45 44 43 42 41 40 38 37 36 35 34 34 33 33 32 31
16 18 19 21 23 25 26 28 29 31 33 35 37 39 40 42 43 44 45 45 46 46 45 45 44 43 42 41 39 38 37 37 36 35 34 33 32 31 31 30 30 29 27
18 20 21 23 25 27 28 30 32 34 35 37 39 40 42 43 44 44 45 45 44 43 42 41 39 38 37 36 35 34 34 33 32 31 30 30 29 28 27 26 25 24 24
21 23 24 26 28 30 32 33 35 37 38 39 40 42 42 43 43 43 43 42 40 38 37 36 35 34 33 33 32 31 30 29 28 27 26 26 25 24 23 22 21 21 20
24 26 28 29 31 32 34 35 36 38 38 39 39 40 40 40 39 39 38 36 35 34 34 32 32 31 30 29 28 27 27 26 25 25 23 22 21 21 20 19 18 18 17

GEFSGL_500_meanwind_144.txt.gz
Wind_Speed
7 7 9 10 11 13 15 16 17 18 19 20 21 22 23 23 23 23 23 23 23 22 22 22 22 22 22 21 21 20 20 21 21 22 23 23 23 24 24 25 25 26 26
7 7 8 10 11 13 14 15 16 17 19 19 20 22 23 23 23 23 23 23 24 23 23 23 23 24 24 23 23 23 23 23 24 25 25 26 26 27 28 28 29 29 29
7 7 8 9 10 13 14 16 16 17 18 18 18 20 21 23 23 23 23 24 24 25 24 24 25 25 25 26 26 25 26 27 27 28 29 29 30 30 31 31 32 32 32
7 7 7 8 9 11 14 16 16 16 17 17 17 19 21 22 24 25 25 25 24 25 25 26 26 26 26 27 27 27 28 29 29 30 31 32 32 32 33 33 33 34 35
7 7 8 8 9 10 13 15 16 17 17 18 18 19 20 22 24 24 24 24 24 24 25 25 25 26 27 27 28 29 30 31 32 33 33 34 34 35 36 36 36 36 37
8 8 8 8 9 10 11 14 14 15 17 18 18 19 20 21 23 23 25 26 26 27 27 26 26 28 29 29 29 31 32 33 34 34 34 36 36 37 37 38 38 38 39
9 9 9 9 9 10 11 13 14 15 17 17 18 19 20 21 21 22 23 24 25 26 26 27 28 29 30 32 32 33 33 34 35 36 37 37 37 38 39 39 40 41 41
11 10 10 10 10 11 12 13 14 16 17 18 18 19 20 21 22 22 23 24 26 27 28 28 29 31 32 33 34 34 34 35 36 37 38 39 40 40 41 42 43 43 44
13 13 12 12 11 12 13 13 14 16 17 18 18 19 20 21 22 23 25 26 27 28 29 31 31 32 33 34 35 35 36 37 39 40 41 42 43 43 44 45 46 46 47
14 15 14 13 13 13 13 13 14 16 17 17 18 19 21 22 23 24 25 27 28 29 30 31 32 33 34 35 36 38 38 40 41 42 43 44 45 46 47 48 49 50 51
16 16 16 15 15 15 15 15 16 17 18 18 18 19 20 22 23 25 26 28 29 30 30 32 33 34 35 36 37 39 41 42 43 44 45 47 48 48 49 50 51 52 54
18 17 17 17 17 18 18 18 18 18 19 18 18 20 21 22 24 25 26 28 29 31 32 34 35 37 38 39 40 41 42 43 44 45 46 47 48 49 51 52 54 55 57
20 19 19 19 19 19 19 19 19 18 19 20 20 21 23 24 25 26 27 28 29 31 33 35 37 38 40 40 41 42 44 45 45 46 47 48 49 51 52 54 56 57 58
22 21 21 21 20 20 19 20 21 21 21 22 22 23 23 25 27 28 29 29 31 33 35 37 37 38 40 42 43 44 45 46 47 48 49 51 52 53 55 57 58 59 60
22 22 22 21 21 21 21 21 21 22 23 24 24 25 26 28 29 30 31 32 33 35 36 38 39 40 42 43 45 46 47 48 50 51 52 54 55 56 57 58 58 60 61
22 22 22 22 23 23 22 23 23 24 24 25 27 28 28 29 30 31 32 34 35 37 38 39 41 42 43 44 46 47 48 50 51 53 54 55 56 56 57 57 58 58 59
21 21 21 22 23 24 25 25 25 26 27 27 28 29 30 31 32 32 33 34 36 36 37 39 41 42 44 45 47 48 50 51 53 54 55 55 55 55 55 55 55 55 54
20 21 22 22 23 24 25 27 27 28 29 30 30 31 32 32 33 33 34 35 36 37 39 41 43 44 46 48 50 51 51 52 52 53 54 54 54 53 53 52 51 50 49
21 21 22 22 23 24 25 26 28 29 29 30 30 31 31 31 31 33 34 36 37 39 41 42 44 45 47 48 49 50 51 51 51 51 51 50 50 49 48 47 46 45 44
19 20 21 22 23 24 24 25 26 27 27 28 29 29 30 31 32 34 36 38 40 41 43 44 45 46 47 48 49 49 49 49 49 48 48 47 46 45 44 43 42 40 38
19 19 20 21 22 23 23 24 25 26 26 27 28 30 31 32 34 36 38 40 41 42 43 44 45 46 47 48 48 48 47 47 46 45 44 42 41 41 40 39 38 36 35
19 20 21 21 21 22 22 24 25 26 27 28 30 32 34 36 37 39 40 41 42 43 44 45 46 46 46 46 45 45 44 43 42 41 40 39 38 38 37 35 34 32 32
19 20 20 21 21 22 23 25 26 28 29 31 33 35 36 38 39 40 41 42 43 44 44 44 44 43 43 42 41 40 40 39 38 37 36 35 34 33 32 30 29 28 28
19 19 20 21 23 24 26 27 28 30 32 34 35 37 38 40 40 41 41 41 41 41 41 40 40 39 38 38 37 36 35 34 33 32 31 30 30 29 27 26 25 25 25
20 21 22 23 25 26 28 29 31 33 34 35 36 37 38 38 38 38 38 38 38 38 37 37 36 36 35 34 34 32 31 30 29 28 27 26 25 24 23 23 22 23 23
21 22 23 25 26 27 29 31 32 33 34 34 35 35 35 35 35 36 36 36 35 35 34 33 33 32 31 31 30 29 28 28 26 25 24 23 22 22 21 20 20 20 20

GEFSGL_500_meanwind_150.txt.gz
Wind_Speed
8 9 10 11 12 13 14 14 16 18 18 19 19 21 21 22 23 22 22 22 23 23 23 23 23 24 23 23 23 24 24 24 25 24 24 24 25 25 25 26 26 27 27
9 9 10 10 11 11 12 13 15 17 18 18 19 20 21 22 22 22 23 23 24 24 24 24 24 26 26 25 26 26 26 26 26 26 26 27 27 27 28 28 29 30 31
8 9 10 10 10 11 12 13 15 17 18 18 19 19 20 21 21 22 23 23 24 24 25 25 26 26 26 27 27 27 28 29 28 28 28 29 29 29 30 31 32 32 33
8 8 9 10 10 11 11 13 14 16 17 17 18 19 20 20 21 22 23 24 24 24 25 26 26 27 28 27 27 28 29 29 30 30 30 31 31 32 33 33 34 35 35
9 9 10 10 10 11 11 13 14 16 17 18 19 19 20 20 21 22 23 24 24 25 26 26 26 27 28 28 29 30 30 32 32 32 32 33 33 34 35 36 37 37 37
11 11 11 11 10 11 12 12 14 16 18 19 20 20 20 21 21 22 23 23 24 26 27 27 28 28 29 30 30 31 32 32 32 33 34 34 34 36 37 37 38 39 40
12 12 11 11 11 12 12 12 14 15 17 19 21 22 22 21 21 22 23 23 24 25 26 27 27 28 29 30 30 31 33 34 35 35 35 36 38 39 39 39 40 41 42
13 13 14 13 13 13 13 14 13 14 15 17 19 20 21 21 22 22 22 23 25 25 26 27 27 28 29 31 32 33 34 35 36 36 37 38 39 40 41 42 43 44 45
15 15 14 15 14 15 15 14 14 14 15 17 19 20 21 21 22 23 23 24 25 25 26 27 29 30 30 31 32 33 35 36 36 37 39 40 41 42 43 45 46 47 47
17 16 16 15 15 16 16 15 15 15 16 17 18 20 22 22 22 22 23 24 24 25 26 28 30 31 32 32 34 35 36 36 38 39 41 42 43 45 46 47 48 49 50
18 18 18 17 17 18 18 17 18 18 18 19 20 21 22 22 21 22 24 25 25 26 27 29 30 31 32 33 34 35 36 38 40 41 42 44 45 46 48 49 50 51 53
19 20 20 19 19 19 19 19 19 19 20 20 20 20 21 21 22 24 25 26 26 26 28 28 29 30 32 34 35 36 38 40 41 42 43 45 47 49 50 51 53 54 55
21 21 22 22 21 21 21 20 20 20 20 21 21 22 22 22 23 24 25 26 27 29 29 29 31 32 34 37 38 39 40 41 42 44 45 47 49 51 53 53 54 55 56
22 22 22 23 23 23 23 22 22 21 21 21 21 21 22 23 24 25 26 28 29 30 31 32 34 36 37 38 39 39 40 42 43 45 47 48 50 50 51 52 53 54 55
23 22 22 23 23 23 23 23 23 22 23 22 22 23 24 25 26 27 28 29 31 32 34 34 35 37 38 39 39 40 41 42 44 46 47 48 49 50 51 52 52 52 53
23 23 23 24 23 24 24 24 23 23 23 23 24 25 26 27 29 29 29 31 32 33 34 34 35 36 37 38 39 40 42 43 45 47 48 48 49 50 50 50 50 50 50
23 24 24 25 25 26 26 26 25 25 26 26 28 28 29 30 31 31 31 32 33 33 34 35 35 36 37 39 40 41 42 43 45 46 46 47 48 49 49 49 48 48 47
22 23 23 23 24 24 24 23 23 25 26 27 28 29 30 30 31 31 31 32 33 33 34 35 36 37 38 39 40 41 42 43 44 45 46 47 47 47 47 46 46 45 45
21 21 21 21 22 22 22 22 23 25 25 26 27 28 29 30 30 30 31 32 33 33 34 35 36 37 38 39 40 42 43 43 44 45 45 45 45 45 44 43 43 42 41
19 19 20 20 20 20 21 22 23 24 25 26 27 28 28 29 29 30 31 32 33 34 35 36 37 38 39 40 41 42 43 43 44 44 44 44 44 43 42 41 40 38 37
18 19 19 20 20 21 22 23 24 25 26 27 27 27 28 28 30 31 32 33 34 35 36 37 38 39 39 40 40 41 41 42 42 42 41 41 40 39 38 37 36 35 34
18 19 20 20 21 22 23 24 24 25 26 27 27 27 28 30 31 33 33 34 35 36 37 37 38 38 38 38 38 38 38 38 38 37 36 36 36 35 34 33 32 31 31
18 19 20 21 22 23 23 24 24 25 26 27 28 29 30 31 32 32 33 33 34 34 34 35 35 35 35 36 36 35 35 35 35 34 34 34 33 31 30 30 29 29 28
19 20 20 21 21 21 22 23 24 25 26 27 28 29 30 30 30 30 31 32 32 33 33 33 33 33 34 34 33 33 32 32 31 31 31 31 30 29 28 28 27 26 25
19 20 20 21 22 23 24 25 26 27 27 28 29 29 28 28 28 29 30 30 30 31 31 31 32 32 31 31 30 30 29 29 29 29 28 28 27 26 26 25 24 23 22
19 20 21 22 23 24 25 25 26 27 27 27 27 27 27 27 28 28 28 28 29 29 30 30 30 29 29 28 28 27 27 27 26 26 25 25 24 24 23 22 21 20 20

GEFSGL_500_meanwind_156.txt.gz
Wind_Speed
10 10 10 11 11 12 13 13 13 14 15 17 17 18 18 19 19 20 21 21 22 21 21 21 22 22 23 24 24 24 24 24 24 24 24 23 24 24 24 24 24 26 26
10 10 10 10 11 12 12 13 14 14 15 15 16 17 18 19 19 20 20 22 22 23 22 22 23 24 24 25 25 26 26 26 26 26 25 25 25 26 26 27 26 27 27
10 10 10 11 11 12 12 13 13 13 14 14 16 17 18 18 19 20 21 21 22 23 23 23 24 24 25 25 26 27 27 27 27 27 27 27 27 27 28 29 29 29 29
11 11 10 10 10 11 12 13 13 13 13 14 15 17 17 18 19 20 21 21 22 22 23 24 24 24 25 26 26 26 27 28 28 28 28 29 29 30 30 31 30 31 32
11 11 10 10 11 11 12 12 12 13 14 13 14 16 18 19 19 20 21 21 21 22 23 24 24 25 26 27 27 28 29 29 30 30 30 31 32 33 33 33 32 33 33
12 12 12 11 12 12 12 12 12 13 13 14 15 16 18 19 20 20 20 21 22 23 24 25 26 27 28 29 29 30 30 31 32 32 33 33 34 34 34 34 35 35 36
14 14 13 13 13 13 12 12 12 13 14 15 16 17 18 19 20 21 21 22 23 24 25 26 26 27 28 28 28 30 31 31 31 32 33 34 34 34 35 36 36 37 38
15 15 14 14 14 14 13 13 14 14 15 15 16 18 18 19 19 20 23 24 24 25 26 27 27 28 28 28 28 29 29 30 32 33 34 35 35 36 37 37 37 38 39
16 16 16 15 15 15 15 15 15 16 16 16 17 17 17 18 18 19 21 23 24 25 26 27 28 28 28 29 29 29 30 31 32 33 34 35 36 37 38 38 39 41 42
17 17 17 17 16 16 17 17 17 17 17 17 18 18 17 17 18 19 21 23 24 25 26 27 28 29 29 30 30 30 30 31 33 34 35 36 36 37 38 40 41 42 44
19 19 19 18 18 18 18 18 19 18 18 17 18 18 19 20 21 21 22 23 24 25 26 27 28 29 30 30 31 32 32 33 34 35 35 36 37 38 40 41 43 45 46
21 20 20 20 19 19 19 19 20 19 19 19 19 20 20 20 20 21 21 23 25 26 27 28 28 29 30 31 32 33 34 34 35 36 37 38 39 40 42 43 44 46 47
22 21 21 21 20 20 20 20 20 20 20 20 21 21 21 21 22 22 23 24 25 26 27 28 30 30 30 31 32 33 34 35 36 37 38 38 40 41 42 43 44 46 47
22 22 21 21 21 21 21 21 21 21 21 21 22 22 22 22 22 23 23 24 25 26 28 29 30 31 33 34 34 35 35 36 37 38 39 39 41 42 44 45 45 46 47
22 22 22 21 21 21 21 22 22 22 22 22 23 23 22 23 24 24 25 26 27 28 29 30 31 32 33 34 35 35 36 36 37 38 39 41 42 42 43 44 44 45 45
22 22 22 22 22 23 23 23 23 23 23 23 23 24 24 24 25 25 26 27 28 30 31 31 32 33 34 35 35 35 36 36 37 39 40 41 41 42 43 43 44 44 44
22 22 22 22 22 23 23 24 24 24 24 24 24 25 25 26 26 26 27 28 29 30 31 32 32 33 34 34 34 34 35 36 37 38 39 40 41 42 42 42 42 42 41
23 23 22 22 22 23 23 24 24 24 24 24 24 24 25 25 27 28 28 29 30 31 31 32 32 32 33 34 34 35 36 36 37 39 40 40 40 40 40 40 40 39 39
23 23 23 23 23 23 23 23 23 23 23 23 24 25 26 27 28 28 29 30 31 31 31 32 32 33 34 35 35 36 37 37 38 39 39 39 39 38 38 38 38 38 38
22 22 22 22 22 22 22 22 23 23 24 24 25 26 27 28 28 29 30 30 31 31 31 32 32 33 34 35 35 36 36 37 38 38 38 38 38 37 36 36 36 36 36
20 21 21 21 21 21 21 22 23 24 25 26 27 28 28 29 29 29 30 30 30 31 31 31 32 33 33 34 34 35 36 36 37 37 37 36 36 35 35 34 34 34 34
21 21 21 21 22 22 23 24 25 26 27 28 28 29 29 29 29 30 30 30 31 31 31 31 32 32 33 33 34 35 35 35 35 35 35 34 33 33 33 33 32 32 32
21 21 21 21 22 23 24 25 26 27 27 28 29 28 28 29 29 29 30 30 30 30 30 31 31 32 32 33 34 34 34 33 33 33 33 32 31 31 30 30 30 30 29
20 20 21 22 23 24 25 26 27 27 28 28 28 29 29 29 29 30 30 30 30 30 31 31 32 32 32 33 33 33 32 32 31 31 31 30 29 29 29 28 28 28 28
21 21 22 23 24 25 25 26 27 27 27 27 27 28 28 29 29 30 30 30 31 31 31 31 30 31 31 31 31 31 30 30 29 29 29 28 28 27 27 26 26 26 26
21 22 22 23 24 24 25 25 26 26 26 26 27 28 29 30 30 30 30 30 30 30 30 30 30 30 30 30 29 29 29 29 29 28 28 27 26 26 25 25 25 24 24

GEFSGL_500_meanwind_162.txt.gz
Wind_Speed
9 9 8 8 9 9 9 9 10 11 13 14 15 15 16 17 19 20 20 20 20 20 21 21 21 22 22 23 23 23 23 24 24 24 24 24 25 25 26 26 26 26 25
9 8 8 8 8 8 9 9 10 11 12 13 15 16 17 17 18 19 20 20 21 21 21 22 22 23 23 23 23 24 24 25 25 25 25 26 26 27 28 28 28 28 28
9 8 8 9 7 8 9 9 9 10 10 12 13 14 15 17 17 18 18 19 20 20 22 22 22 22 23 23 24 25 25 25 26 27 28 29 29 29 30 30 30 30 31
8 8 8 8 8 8 9 10 10 10 11 12 12 13 14 15 16 17 17 19 20 20 22 23 23 23 23 24 25 26 27 27 28 29 30 31 31 31 32 33 33 33 33
8 8 8 9 8 9 9 9 10 10 11 11 12 12 12 13 14 16 17 18 19 20 21 22 23 23 24 24 26 27 28 29 29 30 31 32 32 32 32 34 34 35 34
8 8 9 9 9 9 10 11 11 11 11 11 11 12 12 13 14 15 16 16 17 19 20 21 21 23 24 25 26 28 28 28 29 30 31 32 32 32 32 33 34 34 35
8 9 9 10 10 11 11 11 11 11 11 11 11 12 13 13 14 15 16 17 18 20 21 22 23 23 24 25 26 27 27 27 29 30 31 31 32 31 32 34 35 36 37
10 10 10 10 11 11 11 11 11 11 10 10 10 11 12 13 14 15 17 18 19 20 21 22 23 24 25 25 26 26 27 28 29 31 31 31 31 33 34 35 36 37 37
11 11 11 11 11 12 12 12 12 11 11 11 12 13 13 13 14 15 16 18 19 20 21 22 24 24 25 26 27 28 28 28 29 30 31 33 34 35 35 35 36 37 38
12 12 12 12 12 12 12 13 13 12 12 12 13 14 14 15 16 17 17 18 18 19 21 22 24 25 26 27 27 28 28 29 30 31 33 34 34 34 35 35 36 37 38
13 13 13 13 13 14 14 14 14 14 14 14 14 14 14 15 16 17 18 19 20 21 22 23 24 25 26 27 28 28 29 30 31 32 32 33 34 34 35 36 37 38 39
14 14 14 14 14 15 15 15 15 15 15 15 15 15 15 16 16 17 18 19 20 21 22 22 23 24 25 26 27 28 30 30 31 31 32 32 33 34 35 36 37 38 40
15 16 16 15 15 15 15 15 15 15 16 16 16 16 17 17 18 19 19 20 20 20 21 23 24 25 26 27 28 29 30 30 30 31 32 32 33 34 35 36 37 39 40
16 17 16 16 16 17 17 16 16 17 17 17 17 18 18 19 19 20 20 21 21 22 22 24 25 25 26 27 28 29 30 31 31 32 33 34 35 36 37 38 40 41 42
17 17 18 18 18 18 18 18 18 17 18 18 19 20 20 20 20 21 21 22 22 23 24 25 25 26 27 28 29 30 31 32 32 33 34 36 37 37 38 40 40 40 40
18 18 18 18 18 18 18 17 17 18 19 19 20 21 21 21 21 21 21 22 23 24 25 25 27 27 28 29 30 31 32 33 34 35 36 36 37 37 38 39 39 40 40
18 18 18 18 18 18 18 18 18 19 20 20 21 21 21 22 22 22 23 24 24 25 25 27 28 29 30 30 31 32 33 33 34 35 36 36 36 37 38 39 39 39 39
18 18 18 18 18 18 18 19 19 20 20 21 21 21 22 22 23 23 24 25 25 26 27 29 29 30 30 31 31 32 33 33 34 35 35 36 37 38 38 38 38 38 38
19 18 19 18 18 19 19 19 20 21 21 22 22 22 22 23 24 25 26 27 28 29 29 30 30 31 31 32 32 33 33 34 35 35 36 37 37 38 38 37 36 36 36
19 19 19 18 18 19 19 20 21 21 22 23 23 24 24 25 26 27 28 29 29 30 30 31 31 32 32 32 32 33 33 34 35 35 36 36 37 36 35 35 34 34 34
19 19 19 19 19 19 20 21 22 22 23 24 25 25 26 27 28 28 29 29 29 29 30 31 31 31 32 32 32 33 33 33 34 34 34 34 35 34 33 33 33 33 33
19 19 20 20 20 21 22 23 23 24 23 24 26 27 27 28 28 28 28 28 28 29 30 31 31 31 31 31 31 32 32 33 33 33 33 33 33 32 32 32 31 31 31
20 20 20 20 21 22 23 24 24 24 25 26 27 27 27 28 28 28 28 29 29 30 31 31 31 31 31 31 31 32 32 32 32 32 32 32 31 30 30 29 29 29 28
19 20 20 21 22 22 23 24 24 25 26 26 26 27 27 27 28 29 29 30 30 31 31 31 31 31 31 31 31 31 31 31 31 31 30 30 29 29 28 28 28 27 27
19 19 19 20 21 22 23 24 24 25 25 26 26 27 27 28 29 29 30 30 31 31 31 31 31 31 31 31 31 31 30 30 30 29 28 28 28 27 27 27 27 26 26
19 19 20 21 22 22 23 24 24 25 26 26 26 27 28 29 29 30 31 31 32 32 32 32 32 31 30 30 30 29 29 28 28 27 27 26 26 25 25 25 25 24 25